Content
SEND FEEDBACK

Daily
Averages
Monthly
Summary
Colombia

BOGOTA, COLOMBIA


Home > South America > Colombia
Elevation: 2547 meters     Latitude: 04 42N     Longitude: 074 08W

WEATHER
 
SELECT A DAY
Number of Records: 172,471;   Date Range: 6/30/96 - 10/22/14
 
SHARE

PRINT THIS DATA

[ ← Previous Day ]
WEATHER ALMANAC - 31 JANUARY, 2013
[ Next Day → ]
[ °F ]   °C
Weather ElementAverageHighLow
Temperature14.1 °C22 °C (1:00 pm)7 °C (6:00 am)
Dewpoint9.4 °C12 °C (2:00 pm)6 °C (6:00 am)
Humidity75.6 %96 % (7:00 am)25 % (1:00 pm)
Barometer1025.4 hPa1027.1 hPa (7:33 am)1022.7 hPa (4:00 pm)
Wind Speed11.6 km/h37 km/h (5:00 am)
Weather ElementAverage
Visibility11.1 km
Wind DirectionESE (128.5 °)

Weather ElementTotal
Precipitation---
Heating Degree Days3.8 (Base 18.3)
Growing Degree Days4.5 (Base 10)
Averaged from 33 records on 31 January, 2013
WEATHER CONDITIONS BREAKOUT
WIND DIRECTION BREAKOUT
WEATHER BY HOUR - 31 JANUARY, 2013
[ °F ]   °C
Local TimeTemperatureDewpointHumidityBarometerVisibilityWind DirectionWind SpeedGust SpeedPrecipitationEventsConditions
1:00 AM9.4 °C8.3 °C88 %17.7 kmNNE (20°)7.2 km/hHaze
1:00 AM9 °C8 °C93 %1026.4 hPa10 kmNNE (20°)7.4 km/hPartly Cloudy
2:00 AM9 °C8 °C93 %1026.1 hPa10 kmVariable3.7 km/hPartly Cloudy
3:00 AM10 °C9 °C94 %1025.7 hPa10 kmNNE (30°)5.6 km/hPartly Cloudy
4:00 AM10.6 °C8.9 °C87 %17.7 kmNNE (20°)7.2 km/h
4:00 AM10 °C9 °C94 %1025.1 hPa10 kmNNE (20°)5.6 km/hScattered Clouds
5:00 AM10 °C9 °C94 %1025.1 hPa10 kmVariable37 km/hPartly Cloudy
5:30 AM9 °C8 °C93 %1025.7 hPa10 kmVariable3.7 km/hPartly Cloudy
6:00 AM7 °C6 °C93 %1025.7 hPa10 kmVariable3.7 km/hFogShallow Fog
7:00 AM8.9 °C8.3 °C96 %14.5 kmNNE (20°)3.5 km/hFogPatches of Fog
7:00 AM9 °C8 °C93 %1026.8 hPa10 kmVariable3.7 km/hFogShallow Fog
7:33 AM11 °C10 °C94 %1027.1 hPa10 kmNE (40°)7.4 km/hPartly Cloudy
8:00 AM13 °C10 °C82 %1027.1 hPa10 kmNNE (30°)13 km/hPartly Cloudy
9:00 AM16 °C10 °C68 %1027.1 hPa10 kmNNE (20°)14.8 km/hPartly Cloudy
10:00 AM17.8 °C8.3 °C44 %17.7 kmEast (100°)18 km/hHaze
10:00 AM18 °C9 °C56 %1027.1 hPa10 kmEast (100°)18.5 km/hScattered Clouds
11:00 AM20 °C7 °C43 %1026.1 hPa10 kmSSE (150°)11.1 km/hMostly Cloudy
12:00 PM21 °C7 °C40 %1025.1 hPa10 kmSSE (160°)18.5 km/hMostly Cloudy
1:00 PM21.7 °C6.1 °C25 %16.1 kmSouth (170°)14.3 km/hHaze
1:00 PM22 °C6 °C35 %1024.4 hPa10 kmSouth (170°)13 km/hMostly Cloudy
2:00 PM19 °C12 °C64 %1024 hPa10 kmNW (310°)25.9 km/hMostly Cloudy
3:00 PM20 °C12 °C60 %1023.4 hPa10 kmWNW (300°)22.2 km/hMostly Cloudy
4:00 PM19.4 °C11.7 °C50 %14.5 kmWest (260°)21.6 km/hHaze
4:00 PM20 °C12 °C60 %1022.7 hPa10 kmWest (260°)22.2 km/hScattered Clouds
5:00 PM17 °C12 °C72 %1022.7 hPa10 kmSW (230°)18.5 km/hRainLight Rain
6:00 PM16 °C12 °C77 %1023 hPa10 kmWest (280°)14.8 km/hRainLight Rain
7:00 PM14.4 °C11.1 °C73 %9.7 kmWest (260°)7.2 km/hRainLight Rain
7:00 PM14 °C11 °C82 %1024 hPa10 kmWest (260°)7.4 km/hPartly Cloudy
8:00 PM13 °C11 °C88 %1024.7 hPa10 kmNW (310°)5.6 km/hScattered Clouds
9:00 PM13 °C11 °C88 %1025.7 hPa10 kmSW (220°)5.6 km/hPartly Cloudy
10:00 PM12.2 °C10.6 °C87 %11.3 kmWSW (240°)7.2 km/hHaze
10:00 PM12 °C11 °C94 %1026.1 hPa10 kmWSW (240°)5.6 km/hPartly Cloudy
11:00 PM11 °C10 °C94 %1026.1 hPa10 kmVariable3.7 km/hPartly Cloudy
Hourly data recorded from SKBO, located 0 kilometers away from Bogota, Colombia







STORIES FROM OUR PARTNERS